[TLELIST] Archives

 

[list_settings.list_name] Current TLEs

October 25th 2011 PST

HST 1 20580U 90037B 11295.20903249 +.00002945 +00000-0 +20876-3 0 08569 2 20580 028.4707 266.5755 0003115 035.8360 324.2488 15.01660920978764 ISS (ZARYA) 1 25544U 98067A 11295.91525632 +.00030182 +00000-0 +36827-3 0 02908 2 25544 051.6399 237.7641 0018322 344.6223 127.8819 15.60002321740855 CXO 1 25867U 99040B 11295.91666667 +.00000407 +00000-0 +00000-0 0 06577 2 25867 070.3799 022.6912 8696657 277.2458 358.6232 00.37806367008253 ____________________________________________________________________ These 2-Line ...Continue Reading

[list_settings.list_name] Current TLEs

October 24th 2011 PST

HST 1 20580U 90037B 11294.27856023 +.00002868 +00000-0 +20303-3 0 08550 2 20580 028.4706 272.6563 0003041 025.2637 334.8124 15.01655190978628 ISS (ZARYA) 1 25544U 98067A 11294.88762719 +.00021919 +00000-0 +27010-3 0 02847 2 25544 051.6418 242.9304 0018455 340.8351 116.7704 15.59939921740693 CXO 1 25867U 99040B 11295.91666667 +.00000407 +00000-0 +00000-0 0 06577 2 25867 070.3799 022.6912 8696657 277.2458 358.6232 00.37806367008253 ____________________________________________________________________ These 2-Line ...Continue Reading

[list_settings.list_name] Current TLEs

October 23rd 2011 PST

HST 1 20580U 90037B 11292.35114966 +.00002871 +00000-0 +20330-3 0 08543 2 20580 028.4708 285.2475 0003015 005.0192 355.0835 15.01644613978335 ISS (ZARYA) 1 25544U 98067A 11293.91896002 +.00007859 +00000-0 +10140-3 0 02789 2 25544 051.6405 247.8021 0018646 336.9966 077.2398 15.59875268740546 CXO 1 25867U 99040B 11293.25000000 +.00000374 +00000-0 +00000-0 0 06567 2 25867 070.3447 022.9281 8696211 277.2280 355.5279 00.37808126008245 ____________________________________________________________________ These 2-Line ...Continue Reading

[list_settings.list_name] Current TLEs

October 22nd 2011 PST

HST 1 20580U 90037B 11292.35114966 +.00002871 +00000-0 +20330-3 0 08543 2 20580 028.4708 285.2475 0003015 005.0192 355.0835 15.01644613978335 ISS (ZARYA) 1 25544U 98067A 11292.96119193 +.00023594 +00000-0 +29146-3 0 02726 2 25544 051.6398 252.6197 0019187 333.4224 098.8584 15.59806961740398 CXO 1 25867U 99040B 11293.25000000 +.00000374 +00000-0 +00000-0 0 06567 2 25867 070.3447 022.9281 8696211 277.2280 355.5279 00.37808126008245 ____________________________________________________________________ These 2-Line ...Continue Reading

[list_settings.list_name] Current TLEs

October 21st 2011 PST

HST 1 20580U 90037B 11289.42675959 +.00002339 +00000-0 +16341-3 0 08536 2 20580 028.4707 304.3609 0003077 330.4353 029.6071 15.01627250977892 ISS (ZARYA) 1 25544U 98067A 11291.66695602 +.00026469 +00000-0 +31343-3 0 02665 2 25544 051.6409 259.1313 0015913 342.9719 012.8387 15.60912954740186 CXO 1 25867U 99040B 11293.25000000 +.00000374 +00000-0 +00000-0 0 06567 2 25867 070.3447 022.9281 8696211 277.2280 355.5279 00.37808126008245 ____________________________________________________________________ These 2-Line ...Continue Reading

[list_settings.list_name] Current TLEs

October 20th 2011 PST

HST 1 20580U 90037B 11289.42675959 +.00002339 +00000-0 +16341-3 0 08536 2 20580 028.4707 304.3609 0003077 330.4353 029.6071 15.01627250977892 ISS (ZARYA) 1 25544U 98067A 11291.93104194 .00026332 00000-0 31169-3 0 2661 2 25544 051.6409 257.8008 0015904 344.0404 056.7375 15.60926300740236 CXO 1 25867U 99040B 11290.62500000 +.00000230 +00000-0 +00000-0 0 06550 2 25867 070.3226 023.1695 8693553 277.2043 358.1102 00.37804105008231 ____________________________________________________________________ These 2-Line ...Continue Reading

[list_settings.list_name] Current TLEs

October 19th 2011 PST

HST 1 20580U 90037B 11289.42675959 +.00002339 +00000-0 +16341-3 0 08536 2 20580 028.4707 304.3609 0003077 330.4353 029.6071 15.01627250977892 ISS (ZARYA) 1 25544U 98067A 11290.90722318 .00027153 00000-0 32181-3 0 2624 2 25544 051.6409 262.9572 0015930 340.1251 063.7469 15.60875115740076 CXO 1 25867U 99040B 11290.62500000 +.00000230 +00000-0 +00000-0 0 06550 2 25867 070.3226 023.1695 8693553 277.2043 358.1102 00.37804105008231 ____________________________________________________________________ These 2-Line ...Continue Reading

[list_settings.list_name] Current TLEs

October 18th 2011 PST

HST 1 20580U 90037B 11286.23648785 +.00002331 +00000-0 +16286-3 0 08517 2 20580 028.4708 325.2078 0003143 291.3514 068.6728 15.01613558977419 ISS (ZARYA) 1 25544U 98067A 11290.16248843 .00026795 00000-0 31818-3 0 2580 2 25544 051.6406 266.7082 0015902 337.2304 199.1270 15.60832950739955 CXO 1 25867U 99040B 11288.00000000 +.00000148 +00000-0 +00000-0 0 06541 2 25867 070.3114 023.3392 8691204 277.2193 000.6133 00.37802842008228 ____________________________________________________________________ These 2-Line ...Continue Reading

[list_settings.list_name] Current TLEs

October 17th 2011 PST

HST 1 20580U 90037B 11286.23648785 +.00002331 +00000-0 +16286-3 0 08517 2 20580 028.4708 325.2078 0003143 291.3514 068.6728 15.01613558977419 ISS (ZARYA) 1 25544U 98067A 11288.86372535 .00026627 00000-0 31707-3 0 2503 2 25544 051.6409 273.2491 0015985 332.6591 101.2487 15.60762400739757 CXO 1 25867U 99040B 11288.00000000 +.00000148 +00000-0 +00000-0 0 06541 2 25867 070.3114 023.3392 8691204 277.2193 000.6133 00.37802842008228 ____________________________________________________________________ These 2-Line ...Continue Reading

[list_settings.list_name] Current TLEs

October 16th 2011 PST

HST 1 20580U 90037B 11286.23648785 +.00002331 +00000-0 +16286-3 0 08517 2 20580 028.4708 325.2078 0003143 291.3514 068.6728 15.01613558977419 ISS (ZARYA) 1 25544U 98067A 11286.81211653 +.00009560 +00000-0 +11861-3 0 02381 2 25544 051.6369 283.5817 0016212 325.3429 093.8255 15.60650478739436 CXO 1 25867U 99040B 11288.00000000 +.00000148 +00000-0 +00000-0 0 06541 2 25867 070.3114 023.3392 8691204 277.2193 000.6133 00.37802842008228 ____________________________________________________________________ These 2-Line ...Continue Reading
  • This mailing list is a public mailing list - anyone may join or leave, at any time.
  • This mailing list is announce-only.

International Space Station (ISS) / Hubble Space Telescope (HST) / Chandra X-Ray Observatory Orbital Data via EMAIL

Privacy Policy:

Private list